Gunnison, CO

4:11 AM MDT on August 17, 2017 (GMT -0600)
Gunnison County

Weather History for KGUC - November, 2013

Change the Weather History Date:

Sunday, November 10, 2013

  Actual Average Record
Temperature  
Mean Temperature 34 °F -  
Max Temperature 57 °F 41 °F 64 °F (2016)
Min Temperature 12 °F 15 °F 5 °F (1998)
Degree Days  
Heating Degree Days 30    
Moisture  
Dew Point 13 °F    
Average Humidity 52    
Maximum Humidity 86    
Minimum Humidity 18    
Precipitation  
Precipitation 0.00 in - - ()
Sea Level Pressure  
Sea Level Pressure 30.42 in    
Wind  
Wind Speed 1 mph (NW)    
Max Wind Speed 13 mph    
Max Gust Speed 16 mph    
Visibility 10 miles    
Events      
Averages and records for this station are not official NWS values.
T = Trace of Precipitation, MM = Missing Value Source: NWS Daily Summary

Daily Weather History Graph

Daily Weather History Graph

Search for Another Location

Airport or City:

Trip Planner

Search our weather history database for the weather conditions in past years. The results will help you decide how hot, cold, wet, or windy it might be!

Date:

Astronomy

Nov. 10, 2013 Rise Set
Actual Time 6:44 AM MST 4:58 PM MST
Civil Twilight 6:16 AM MST 5:26 PM MST
Nautical Twilight 5:44 AM MST 5:58 PM MST
Astronomical Twilight 5:13 AM MST 6:29 PM MST
Moon 1:01 PM MST (11/10) No Moon Set
Length of Visible Light 11h 10m
Length of Day
10h 14m
First Quarter, 56% of the Moon is Illuminated
Nov 10
First Quarter
Nov 17
Full
Nov 25
Last Quarter
Dec 2
New
Dec 9
First Quarter

Hourly Weather History & Observations

Time (MST) Temp. Windchill Dew Point Humidity Pressure Visibility Wind Dir Wind Speed Gust Speed Precip Events Conditions
12:15 AM 21.2 °F - 14.0 °F 74% 30.41 in 10.0 mi Calm Calm - N/A   Clear
12:35 AM 21.2 °F - 12.2 °F 68% 30.41 in 10.0 mi Calm Calm - N/A   Clear
12:55 AM 19.4 °F 14.3 °F 12.2 °F 74% 30.41 in 10.0 mi ENE 3.5 mph - N/A   Clear
1:15 AM 21.2 °F - 8.6 °F 58% 30.42 in 7.0 mi Calm Calm - N/A   Clear
1:35 AM 19.4 °F - 10.4 °F 68% 30.42 in 10.0 mi Calm Calm - N/A   Clear
1:55 AM 17.6 °F - 10.4 °F 73% 30.42 in 10.0 mi Calm Calm - N/A   Clear
2:15 AM 17.6 °F - 10.4 °F 73% 30.43 in 10.0 mi Calm Calm - N/A   Clear
2:55 AM 17.6 °F - 10.4 °F 73% 30.43 in 10.0 mi North - - N/A   Clear
3:15 AM 17.6 °F - 10.4 °F 73% 30.43 in 10.0 mi Calm Calm - N/A   Clear
3:35 AM 17.6 °F - 10.4 °F 73% 30.43 in 10.0 mi Calm Calm - N/A   Clear
3:55 AM 15.8 °F - 10.4 °F 79% 30.44 in 10.0 mi Calm Calm - N/A   Clear
4:15 AM 17.6 °F - 10.4 °F 73% 30.45 in 10.0 mi Calm Calm - N/A   Clear
4:35 AM 17.6 °F 12.3 °F 10.4 °F 73% 30.45 in 10.0 mi North 3.5 mph - N/A   Clear
4:55 AM 15.8 °F - 10.4 °F 79% 30.46 in 10.0 mi Calm Calm - N/A   Clear
5:15 AM 15.8 °F - 8.6 °F 73% 30.46 in 10.0 mi Calm Calm - N/A   Clear
5:35 AM 12.2 °F - 3.2 °F 67% 30.46 in 10.0 mi Calm Calm - N/A   Clear
5:55 AM 14.0 °F - 10.4 °F 86% 30.47 in 10.0 mi Calm Calm - N/A   Clear
6:15 AM 15.8 °F - 8.6 °F 73% 30.48 in 10.0 mi Calm Calm - N/A   Clear
6:35 AM 15.8 °F - 8.6 °F 73% 30.48 in 10.0 mi Calm Calm - N/A   Clear
6:55 AM 14.0 °F - 8.6 °F 79% 30.48 in 10.0 mi Calm Calm - N/A   Clear
7:15 AM 12.2 °F - 3.2 °F 67% 30.49 in 10.0 mi Calm Calm - N/A   Clear
7:35 AM 14.0 °F - 10.4 °F 86% 30.50 in 10.0 mi Calm Calm - N/A   Clear
7:55 AM 17.6 °F - 10.4 °F 73% 30.50 in 10.0 mi Calm Calm - N/A   Clear
8:15 AM 19.4 °F - 12.2 °F 74% 30.51 in 10.0 mi Calm Calm - N/A   Clear
8:35 AM 21.2 °F - 14.0 °F 74% 30.51 in 10.0 mi Calm Calm - N/A   Clear
8:55 AM 24.8 °F - 15.8 °F 69% 30.51 in 10.0 mi Calm Calm - N/A   Clear
9:15 AM 26.6 °F - 15.8 °F 64% 30.50 in 10.0 mi Calm Calm - N/A   Clear
9:35 AM 28.4 °F - 17.6 °F 64% 30.49 in 10.0 mi Calm Calm - N/A   Clear
9:55 AM 32.0 °F - 19.4 °F 60% 30.49 in 10.0 mi Calm Calm - N/A   Clear
10:15 AM 35.6 °F - 17.6 °F 48% 30.48 in 10.0 mi Calm Calm - N/A   Clear
10:35 AM 37.4 °F - 17.6 °F 45% 30.47 in 10.0 mi Calm Calm - N/A   Clear
10:55 AM 39.2 °F - 17.6 °F 42% 30.46 in 10.0 mi Calm Calm - N/A   Clear
11:15 AM 39.2 °F - 19.4 °F 45% 30.44 in 10.0 mi Calm Calm - N/A   Clear
11:35 AM 42.8 °F - 19.4 °F 39% 30.44 in 10.0 mi Calm Calm - N/A   Clear
11:55 AM 44.6 °F - 17.6 °F 34% 30.42 in 10.0 mi Calm Calm - N/A   Clear
12:15 PM 46.4 °F - 17.6 °F 32% 30.40 in 10.0 mi Calm Calm - N/A   Clear
12:35 PM 46.4 °F 45.2 °F 17.6 °F 32% 30.39 in 10.0 mi South 3.5 mph - N/A   Clear
12:55 PM 48.2 °F - 17.6 °F 30% 30.38 in 10.0 mi Calm Calm - N/A   Clear
1:15 PM 50.0 °F - 17.6 °F 28% 30.37 in 10.0 mi Calm Calm - N/A   Clear
1:35 PM 51.8 °F - 19.4 °F 28% 30.36 in 10.0 mi Calm Calm - N/A   Clear
1:55 PM 51.8 °F - 17.6 °F 26% 30.36 in 10.0 mi Calm Calm - N/A   Clear
2:15 PM 55.4 °F - 19.4 °F 25% 30.35 in 10.0 mi Calm Calm - N/A   Clear
2:35 PM 53.6 °F - 17.6 °F 24% 30.34 in 10.0 mi NNE 8.1 mph - N/A   Clear
2:55 PM 55.4 °F - 17.6 °F 23% 30.34 in 10.0 mi North 5.8 mph - N/A   Clear
3:15 PM 57.2 °F - 15.8 °F 20% 30.34 in 10.0 mi NW 3.5 mph - N/A   Clear
3:35 PM 57.2 °F - 15.8 °F 20% 30.34 in 10.0 mi WSW 12.7 mph 16.1 mph N/A   Clear
3:55 PM 55.4 °F - 12.2 °F 18% 30.34 in 10.0 mi WSW 10.4 mph - N/A   Clear
4:15 PM 55.4 °F - 12.2 °F 18% 30.34 in 10.0 mi WSW 10.4 mph 16.1 mph N/A   Clear
4:35 PM 53.6 °F - 12.2 °F 19% 30.35 in 10.0 mi West 9.2 mph - N/A   Clear
4:55 PM 50.0 °F - 10.4 °F 20% 30.35 in 10.0 mi WSW 8.1 mph - N/A   Clear
5:15 PM 48.2 °F - 12.2 °F 24% 30.36 in 10.0 mi WSW 5.8 mph - N/A   Clear
5:35 PM 46.4 °F 42.4 °F 10.4 °F 23% 30.36 in 10.0 mi West 8.1 mph - N/A   Clear
5:55 PM 44.6 °F 40.7 °F 12.2 °F 27% 30.37 in 10.0 mi WSW 6.9 mph - N/A   Clear
6:15 PM 44.6 °F 40.2 °F 12.2 °F 27% 30.38 in 10.0 mi North 8.1 mph - N/A   Clear
6:35 PM 41.0 °F 37.1 °F 12.2 °F 31% 30.39 in 10.0 mi NNW 5.8 mph - N/A   Clear
6:55 PM 39.2 °F 35.0 °F 12.2 °F 33% 30.39 in 10.0 mi North 5.8 mph - N/A   Clear
7:15 PM 35.6 °F - 10.4 °F 35% 30.40 in 10.0 mi Calm Calm - N/A   Clear
7:35 PM 37.4 °F - 14.0 °F 38% 30.40 in 10.0 mi Calm Calm - N/A   Clear
7:55 PM 37.4 °F - 14.0 °F 38% 30.40 in 10.0 mi Calm Calm - N/A   Clear
8:15 PM 33.8 °F - 10.4 °F 38% 30.41 in 10.0 mi Calm Calm - N/A   Clear
8:35 PM 32.0 °F - 14.0 °F 48% 30.41 in 10.0 mi Calm Calm - N/A   Clear
8:55 PM 28.4 °F - 12.2 °F 51% 30.41 in 10.0 mi Calm Calm - N/A   Clear
9:15 PM 30.2 °F - 15.8 °F 55% 30.42 in 10.0 mi Calm Calm - N/A   Clear
9:35 PM 26.6 °F - 14.0 °F 59% 30.43 in 10.0 mi Calm Calm - N/A   Clear
9:55 PM 26.6 °F 22.6 °F 12.2 °F 55% 30.43 in 10.0 mi ENE 3.5 mph - N/A   Clear
10:15 PM 24.8 °F 20.5 °F 12.2 °F 59% 30.44 in 10.0 mi ENE 3.5 mph - N/A   Clear
10:35 PM 26.6 °F - 12.2 °F 55% 30.44 in 10.0 mi Calm Calm - N/A   Clear
10:55 PM 24.8 °F - 10.4 °F 54% 30.44 in 10.0 mi Calm Calm - N/A   Clear
11:15 PM 21.2 °F - 10.4 °F 63% 30.44 in 10.0 mi Calm Calm - N/A   Clear
11:35 PM 21.2 °F - 10.4 °F 63% 30.44 in 10.0 mi Calm Calm - N/A   Clear
11:55 PM 19.4 °F 14.3 °F 12.2 °F 74% 30.44 in 10.0 mi ENE 3.5 mph - N/A   Clear